When you browse on this site, cookies collect data to enhance your experience and personalize the content and advertising you see.
Visit our Privacy Policy to learn more. By continuing to use the site, you agree to this use of cookies and data.
  • In Schweiz
  • Länderverzeichnis
  • Für 7 Tage
  • Wassertemperatur
  • Wetterkarte
  • Widgets
  • user-avatar
    Anmelden

    Stündliche Wetter Malin

    Heute, 25 Februar, Dienstag

    Zeit Temperatur Niederschläge Wind Luftdruck Luftfeuchtigkeit
    00:00 -1°C° 0 mm 5 m/S 744 mmHg 80%
    01:00 -2°C° 0 mm 4 m/S 744 mmHg 83%
    02:00 -2°C° 0 mm 4 m/S 744 mmHg 87%
    03:00 -1°C° 0 mm 3 m/S 744 mmHg 88%
    04:00 -1°C° 0 mm 3 m/S 744 mmHg 90%
    05:00 -1°C° 0 mm 2 m/S 744 mmHg 91%
    06:00 -1°C° 0 mm 2 m/S 743 mmHg 89%
    07:00 -1°C° 0 mm 3 m/S 743 mmHg 88%
    08:00 0°C° 0 mm 3 m/S 743 mmHg 86%
    09:00 0°C° 0 mm 4 m/S 743 mmHg 82%
    10:00 +1°C° 0 mm 4 m/S 743 mmHg 78%
    11:00 +2°C° 0 mm 5 m/S 742 mmHg 73%
    12:00 +2°C° 0 mm 5 m/S 742 mmHg 76%
    13:00 +2°C° 0 mm 5 m/S 741 mmHg 79%
    14:00 +2°C° 0 mm 5 m/S 741 mmHg 82%
    15:00 +2°C° 0 mm 5 m/S 740 mmHg 85%
    16:00 +1°C° 0 mm 5 m/S 740 mmHg 88%
    17:00 +1°C° 0 mm 4 m/S 739 mmHg 91%
    18:00 +1°C° 0 mm 4 m/S 739 mmHg 90%
    19:00 +1°C° 0 mm 5 m/S 739 mmHg 88%
    20:00 +1°C° 0 mm 5 m/S 739 mmHg 86%
    21:00 +2°C° 0.2 mm 5 m/S 738 mmHg 86%
    22:00 +2°C° 0.2 mm 5 m/S 738 mmHg 85%
    23:00 +2°C° 0.2 mm 5 m/S 737 mmHg 85%

    Morgen, 26 Februar, Mittwoch

    Zeit Temperatur Niederschläge Wind Luftdruck Luftfeuchtigkeit
    00:00 +2°C° 0.3 mm 5 m/S 737 mmHg 85%
    01:00 +3°C° 0.3 mm 4 m/S 736 mmHg 85%
    02:00 +3°C° 0.3 mm 4 m/S 736 mmHg 85%
    03:00 +4°C° 0 mm 4 m/S 735 mmHg 85%
    04:00 +4°C° 0 mm 4 m/S 735 mmHg 84%
    05:00 +4°C° 0 mm 4 m/S 734 mmHg 84%
    06:00 +4°C° 0.1 mm 4 m/S 734 mmHg 83%
    07:00 +4°C° 0.1 mm 4 m/S 734 mmHg 82%
    08:00 +5°C° 0.1 mm 4 m/S 733 mmHg 82%
    09:00 +5°C° 0 mm 4 m/S 733 mmHg 79%
    10:00 +6°C° 0 mm 4 m/S 733 mmHg 75%
    11:00 +7°C° 0 mm 4 m/S 733 mmHg 72%
    12:00 +8°C° 0 mm 3 m/S 733 mmHg 72%
    13:00 +8°C° 0 mm 3 m/S 732 mmHg 73%
    14:00 +9°C° 0 mm 2 m/S 732 mmHg 73%
    15:00 +8°C° 0.1 mm 2 m/S 732 mmHg 75%
    16:00 +8°C° 0.1 mm 2 m/S 731 mmHg 77%
    17:00 +8°C° 0.1 mm 2 m/S 731 mmHg 79%
    18:00 +8°C° 0.3 mm 2 m/S 731 mmHg 82%
    19:00 +8°C° 0.3 mm 2 m/S 731 mmHg 85%
    20:00 +8°C° 0.3 mm 3 m/S 731 mmHg 88%
    21:00 +7°C° 0.2 mm 3 m/S 731 mmHg 88%
    22:00 +7°C° 0.2 mm 3 m/S 730 mmHg 89%
    23:00 +7°C° 0.2 mm 3 m/S 730 mmHg 89%

    übermorgen, 27 Februar, Donnerstag

    Zeit Temperatur Niederschläge Wind Luftdruck Luftfeuchtigkeit
    00:00 +5°C° 0 mm 3 m/S 730 mmHg 91%
    01:00 +4°C° 0 mm 3 m/S 731 mmHg 94%
    02:00 +4°C° 0 mm 3 m/S 731 mmHg 96%
    03:00 +4°C° 0 mm 3 m/S 731 mmHg 95%
    04:00 +4°C° 0 mm 3 m/S 731 mmHg 94%
    05:00 +4°C° 0 mm 3 m/S 731 mmHg 93%
    06:00 +3°C° 0 mm 4 m/S 731 mmHg 91%
    07:00 +3°C° 0 mm 4 m/S 732 mmHg 90%
    08:00 +3°C° 0 mm 4 m/S 732 mmHg 88%
    09:00 +3°C° 0 mm 4 m/S 733 mmHg 78%
    10:00 +2°C° 0 mm 5 m/S 733 mmHg 68%
    11:00 +3°C° 0 mm 5 m/S 733 mmHg 58%
    12:00 +3°C° 0 mm 5 m/S 734 mmHg 58%
    13:00 +5°C° 0 mm 5 m/S 734 mmHg 57%
    14:00 +5°C° 0 mm 5 m/S 734 mmHg 57%
    15:00 +3°C° 0 mm 5 m/S 734 mmHg 60%
    16:00 +3°C° 0 mm 5 m/S 734 mmHg 62%
    17:00 +2°C° 0 mm 5 m/S 735 mmHg 65%
    18:00 +3°C° 0 mm 4 m/S 735 mmHg 68%
    19:00 +1°C° 0 mm 4 m/S 735 mmHg 71%
    20:00 +1°C° 0 mm 3 m/S 736 mmHg 74%
    21:00 +1°C° 0 mm 3 m/S 736 mmHg 76%
    22:00 0°C° 0 mm 3 m/S 736 mmHg 78%
    23:00 0°C° 0 mm 3 m/S 736 mmHg 79%

    28 Februar, Freitag

    Zeit Temperatur Niederschläge Wind Luftdruck Luftfeuchtigkeit
    00:00 -1°C° 0 mm 3 m/S 736 mmHg 80%
    01:00 -1°C° 0 mm 3 m/S 736 mmHg 80%
    02:00 -2°C° 0 mm 4 m/S 737 mmHg 81%
    03:00 -2°C° 0 mm 3 m/S 737 mmHg 81%
    04:00 -2°C° 0 mm 3 m/S 737 mmHg 82%
    05:00 -2°C° 0 mm 2 m/S 737 mmHg 83%
    06:00 -2°C° 0 mm 2 m/S 737 mmHg 80%
    07:00 -1°C° 0 mm 2 m/S 737 mmHg 78%
    08:00 -1°C° 0 mm 3 m/S 737 mmHg 75%
    09:00 0°C° 0 mm 3 m/S 737 mmHg 70%
    10:00 +1°C° 0 mm 3 m/S 737 mmHg 64%
    11:00 +3°C° 0 mm 3 m/S 737 mmHg 59%
    12:00 +3°C° 0 mm 3 m/S 737 mmHg 58%
    13:00 +4°C° 0 mm 3 m/S 738 mmHg 56%
    14:00 +4°C° 0 mm 3 m/S 738 mmHg 55%
    15:00 +4°C° 0.2 mm 3 m/S 738 mmHg 59%
    16:00 +4°C° 0.2 mm 2 m/S 738 mmHg 62%
    17:00 +4°C° 0.2 mm 2 m/S 738 mmHg 65%
    18:00 +3°C° 0 mm 2 m/S 738 mmHg 71%
    19:00 +2°C° 0 mm 2 m/S 738 mmHg 76%
    20:00 +3°C° 0 mm 1 m/S 738 mmHg 82%
    21:00 +2°C° 0.1 mm 1 m/S 738 mmHg 85%
    22:00 +2°C° 0.1 mm 1 m/S 739 mmHg 88%
    23:00 +2°C° 0.1 mm 1 m/S 739 mmHg 91%

    29 Februar, Samstag

    Zeit Temperatur Niederschläge Wind Luftdruck Luftfeuchtigkeit
    00:00 +2°C° 0 mm 1 m/S 739 mmHg 92%
    01:00 -1°C° 0 mm 2 m/S 739 mmHg 94%
    02:00 -1°C° 0 mm 2 m/S 739 mmHg 96%
    03:00 -1°C° 0 mm 3 m/S 740 mmHg 93%
    04:00 -1°C° 0 mm 3 m/S 740 mmHg 90%
    05:00 -2°C° 0 mm 4 m/S 740 mmHg 87%
    06:00 -2°C° 0 mm 4 m/S 740 mmHg 87%
    07:00 -2°C° 0 mm 4 m/S 741 mmHg 87%
    08:00 -2°C° 0 mm 5 m/S 741 mmHg 87%
    09:00 -1°C° 0 mm 5 m/S 742 mmHg 82%
    10:00 -1°C° 0 mm 5 m/S 742 mmHg 77%
    11:00 -1°C° 0 mm 5 m/S 742 mmHg 72%
    12:00 0°C° 0 mm 5 m/S 742 mmHg 66%
    13:00 +1°C° 0 mm 5 m/S 742 mmHg 60%
    14:00 +2°C° 0 mm 5 m/S 742 mmHg 54%
    15:00 +2°C° 0 mm 5 m/S 742 mmHg 58%
    16:00 +1°C° 0 mm 4 m/S 742 mmHg 62%
    17:00 +2°C° 0 mm 3 m/S 743 mmHg 67%
    18:00 +1°C° 0 mm 3 m/S 743 mmHg 72%
    19:00 0°C° 0 mm 3 m/S 743 mmHg 78%
    20:00 -1°C° 0 mm 3 m/S 743 mmHg 83%
    21:00 -1°C° 0 mm 3 m/S 743 mmHg 84%
    22:00 -1°C° 0 mm 3 m/S 743 mmHg 85%
    23:00 -1°C° 0 mm 3 m/S 743 mmHg 86%

    1 März, Sonntag

    Zeit Temperatur Niederschläge Wind Luftdruck Luftfeuchtigkeit
    00:00 -1°C° 0 mm 2 m/S 743 mmHg 85%
    01:00 -1°C° 0 mm 2 m/S 743 mmHg 83%
    02:00 -1°C° 0 mm 2 m/S 743 mmHg 82%
    03:00 -1°C° 0 mm 3 m/S 743 mmHg 81%
    04:00 -1°C° 0 mm 3 m/S 742 mmHg 79%
    05:00 -1°C° 0 mm 3 m/S 742 mmHg 78%
    06:00 -1°C° 0 mm 4 m/S 742 mmHg 76%
    07:00 -1°C° 0 mm 4 m/S 742 mmHg 73%
    08:00 -1°C° 0 mm 4 m/S 742 mmHg 71%
    09:00 +1°C° 0 mm 4 m/S 742 mmHg 66%
    10:00 +2°C° 0 mm 5 m/S 741 mmHg 61%
    11:00 +3°C° 0 mm 5 m/S 741 mmHg 55%
    12:00 +5°C° 0 mm 5 m/S 741 mmHg 58%
    13:00 +5°C° 0 mm 5 m/S 741 mmHg 60%
    14:00 +5°C° 0 mm 4 m/S 740 mmHg 62%
    15:00 +4°C° 0.2 mm 4 m/S 740 mmHg 71%
    16:00 +4°C° 0.2 mm 3 m/S 740 mmHg 80%
    17:00 +3°C° 0.2 mm 3 m/S 740 mmHg 89%
    18:00 +3°C° 0.3 mm 3 m/S 740 mmHg 91%
    19:00 +2°C° 0.3 mm 3 m/S 740 mmHg 93%
    20:00 +2°C° 0.3 mm 3 m/S 740 mmHg 94%
    21:00 +2°C° 0.1 mm 3 m/S 741 mmHg 93%
    22:00 +2°C° 0.1 mm 3 m/S 741 mmHg 92%
    23:00 +2°C° 0.1 mm 3 m/S 741 mmHg 91%
    Mehr zeigen